owner,sensor,date,latitude,longitude,vertical_datum,wind_speed,wind_to_direction,wind_speed_of_gust,qcFlag 
DISL,ioos:station:DISL:MHPA:1,2008-04-01T00:00:00Z,30.6671,-87.9365,8.5,2.97,114.6,-9999.0,'1111122,1111122,1111122' 
DISL,ioos:station:DISL:MHPA:1,2008-04-01T00:30:00Z,30.6671,-87.9365,8.5,3.18,124.8,-9999.0,'1111122,1111122,1111122' 
DISL,ioos:station:DISL:MHPA:1,2008-04-01T01:00:00Z,30.6671,-87.9365,8.5,5.05,125.2,-9999.0,'1111122,1111122,1111122' 
DISL,ioos:station:DISL:MHPA:1,2008-04-01T01:30:00Z,30.6671,-87.9365,8.5,3.43,119.5,-9999.0,'1111122,1111122,1111122' 
DISL,ioos:station:DISL:MHPA:1,2008-04-01T02:00:00Z,30.6671,-87.9365,8.5,3.22,123.6,-9999.0,'1111122,1111122,1111122' 
DISL,ioos:station:DISL:MHPA:1,2008-04-01T02:30:00Z,30.6671,-87.9365,8.5,3.7,114.6,-9999.0,'1111122,1111122,1111122' 
DISL,ioos:station:DISL:MHPA:1,2008-04-01T03:00:00Z,30.6671,-87.9365,8.5,3.67,114.2,-9999.0,'1111122,1111122,1111122' 
DISL,ioos:station:DISL:MHPA:1,2008-04-01T03:30:00Z,30.6671,-87.9365,8.5,1.33,85.8,-9999.0,'1111122,1111122,1111122' 
DISL,ioos:station:DISL:MHPA:1,2008-04-01T04:00:00Z,30.6671,-87.9365,8.5,1.44,70.6,-9999.0,'1111122,1111122,1111122' 
DISL,ioos:station:DISL:MHPA:1,2008-04-01T04:30:00Z,30.6671,-87.9365,8.5,1.93,91.5,-9999.0,'1111122,1111122,1111122' 
DISL,ioos:station:DISL:MHPA:1,2008-04-01T05:00:00Z,30.6671,-87.9365,8.5,2.57,93.4,-9999.0,'1111122,1111122,1111122' 
DISL,ioos:station:DISL:MHPA:1,2008-04-01T05:30:00Z,30.6671,-87.9365,8.5,1.32,62.88,-9999.0,'1111122,1111122,1111122' 
DISL,ioos:station:DISL:MHPA:1,2008-04-01T06:00:00Z,30.6671,-87.9365,8.5,2.21,120.1,-9999.0,'1111122,1111122,1111122' 
DISL,ioos:station:DISL:MHPA:1,2008-04-01T06:30:00Z,30.6671,-87.9365,8.5,1.75,91.5,-9999.0,'1111122,1111122,1111122' 
DISL,ioos:station:DISL:MHPA:1,2008-04-01T07:00:00Z,30.6671,-87.9365,8.5,1.98,104.2,-9999.0,'1111122,1111122,1111122' 
DISL,ioos:station:DISL:MHPA:1,2008-04-01T07:30:00Z,30.6671,-87.9365,8.5,4.14,120.5,-9999.0,'1111122,1111122,1111122' 
DISL,ioos:station:DISL:MHPA:1,2008-04-01T08:00:00Z,30.6671,-87.9365,8.5,4.55,137.2,-9999.0,'1111122,1111122,1111122' 
DISL,ioos:station:DISL:MHPA:1,2008-04-01T08:30:00Z,30.6671,-87.9365,8.5,3.51,151.2,-9999.0,'1111122,1111122,1111122' 
DISL,ioos:station:DISL:MHPA:1,2008-04-01T09:00:00Z,30.6671,-87.9365,8.5,3.5,154.0,-9999.0,'1111122,1111122,1111122' 
DISL,ioos:station:DISL:MHPA:1,2008-04-01T09:30:00Z,30.6671,-87.9365,8.5,3.36,147.2,-9999.0,'1111122,1111122,1111122' 
DISL,ioos:station:DISL:MHPA:1,2008-04-01T10:00:00Z,30.6671,-87.9365,8.5,3.37,143.4,-9999.0,'1111122,1111122,1111122' 
DISL,ioos:station:DISL:MHPA:1,2008-04-01T10:30:00Z,30.6671,-87.9365,8.5,3.31,142.5,-9999.0,'1111122,1111122,1111122' 
DISL,ioos:station:DISL:MHPA:1,2008-04-01T11:00:00Z,30.6671,-87.9365,8.5,2.99,152.6,-9999.0,'1111122,1111122,1111122' 
DISL,ioos:station:DISL:MHPA:1,2008-04-01T11:30:00Z,30.6671,-87.9365,8.5,4.7,163.5,-9999.0,'1111122,1111122,1111122' 
DISL,ioos:station:DISL:MHPA:1,2008-04-01T12:00:00Z,30.6671,-87.9365,8.5,4.63,152.9,-9999.0,'1111122,1111122,1111122' 
DISL,ioos:station:DISL:MHPA:1,2008-04-01T12:30:00Z,30.6671,-87.9365,8.5,5.03,170.0,-9999.0,'1111122,1111122,1111122' 
DISL,ioos:station:DISL:MHPA:1,2008-04-01T13:00:00Z,30.6671,-87.9365,8.5,3.49,157.0,-9999.0,'1111122,1111122,1111122' 
DISL,ioos:station:DISL:MHPA:1,2008-04-01T13:30:00Z,30.6671,-87.9365,8.5,3.38,153.2,-9999.0,'1111122,1111122,1111122' 
DISL,ioos:station:DISL:MHPA:1,2008-04-01T14:00:00Z,30.6671,-87.9365,8.5,3.71,167.0,-9999.0,'1111122,1111122,1111122' 
DISL,ioos:station:DISL:MHPA:1,2008-04-01T14:30:00Z,30.6671,-87.9365,8.5,4.37,166.4,-9999.0,'1111122,1111122,1111122' 
DISL,ioos:station:DISL:MHPA:1,2008-04-01T15:00:00Z,30.6671,-87.9365,8.5,3.72,171.5,-9999.0,'1111122,1111122,1111122' 
DISL,ioos:station:DISL:MHPA:1,2008-04-01T15:30:00Z,30.6671,-87.9365,8.5,2.06,191.3,-9999.0,'1111122,1111122,1111122' 
DISL,ioos:station:DISL:MHPA:1,2008-04-01T16:00:00Z,30.6671,-87.9365,8.5,2.77,211.5,-9999.0,'1111122,1111122,1111122' 
DISL,ioos:station:DISL:MHPA:1,2008-04-01T16:30:00Z,30.6671,-87.9365,8.5,2.16,221.3,-9999.0,'1111122,1111122,1111122' 
DISL,ioos:station:DISL:MHPA:1,2008-04-01T17:00:00Z,30.6671,-87.9365,8.5,2.76,211.5,-9999.0,'1111122,1111122,1111122' 
DISL,ioos:station:DISL:MHPA:1,2008-04-01T17:30:00Z,30.6671,-87.9365,8.5,3.21,225.2,-9999.0,'1111122,1111122,1111122' 
DISL,ioos:station:DISL:MHPA:1,2008-04-01T18:00:00Z,30.6671,-87.9365,8.5,3.33,213.3,-9999.0,'1111122,1111122,1111122' 
DISL,ioos:station:DISL:MHPA:1,2008-04-01T18:30:00Z,30.6671,-87.9365,8.5,3.23,226.0,-9999.0,'1111122,1111122,1111122' 
DISL,ioos:station:DISL:MHPA:1,2008-04-01T19:00:00Z,30.6671,-87.9365,8.5,2.33,223.1,-9999.0,'1111122,1111122,1111122' 
DISL,ioos:station:DISL:MHPA:1,2008-04-01T19:30:00Z,30.6671,-87.9365,8.5,4.76,184.3,-9999.0,'1111122,1111122,1111122' 
DISL,ioos:station:DISL:MHPA:1,2008-04-01T20:00:00Z,30.6671,-87.9365,8.5,5.71,156.2,-9999.0,'1111122,1111122,1111122' 
DISL,ioos:station:DISL:MHPA:1,2008-04-01T20:30:00Z,30.6671,-87.9365,8.5,4.55,141.5,-9999.0,'1111122,1111122,1111122' 
DISL,ioos:station:DISL:MHPA:1,2008-04-01T21:00:00Z,30.6671,-87.9365,8.5,2.93,127.8,-9999.0,'1111122,1111122,1111122' 
DISL,ioos:station:DISL:MHPA:1,2008-04-01T21:30:00Z,30.6671,-87.9365,8.5,2.21,154.7,-9999.0,'1111122,1111122,1111122' 
DISL,ioos:station:DISL:MHPA:1,2008-04-01T22:00:00Z,30.6671,-87.9365,8.5,0.29,214.7,-9999.0,'1111122,1111122,1111122' 
DISL,ioos:station:DISL:MHPA:1,2008-04-01T22:30:00Z,30.6671,-87.9365,8.5,0.32,257.7,-9999.0,'1111122,1111122,1111122' 
DISL,ioos:station:DISL:MHPA:1,2008-04-01T23:00:00Z,30.6671,-87.9365,8.5,1.08,272.6,-9999.0,'1111122,1111122,1111122' 
DISL,ioos:station:DISL:MHPA:1,2008-04-01T23:30:00Z,30.6671,-87.9365,8.5,0.2,285.3,-9999.0,'1111122,1111122,1111122' 
DISL,ioos:station:DISL:MHPA:1,2008-04-02T00:00:00Z,30.6671,-87.9365,8.5,1.32,317.0,-9999.0,'1111122,1111122,1111122' 
DISL,ioos:station:DISL:MHPA:1,2008-04-02T00:30:00Z,30.6671,-87.9365,8.5,1.15,166.6,-9999.0,'1111122,1111122,1111122' 
DISL,ioos:station:DISL:MHPA:1,2008-04-02T01:00:00Z,30.6671,-87.9365,8.5,3.24,179.2,-9999.0,'1111122,1111122,1111122' 
DISL,ioos:station:DISL:MHPA:1,2008-04-02T01:30:00Z,30.6671,-87.9365,8.5,1.82,128.9,-9999.0,'1111122,1111122,1111122' 
DISL,ioos:station:DISL:MHPA:1,2008-04-02T02:00:00Z,30.6671,-87.9365,8.5,0.65,55.88,-9999.0,'1111122,1111122,1111122' 
DISL,ioos:station:DISL:MHPA:1,2008-04-02T02:30:00Z,30.6671,-87.9365,8.5,0.51,101.2,-9999.0,'1111122,1111122,1111122' 
DISL,ioos:station:DISL:MHPA:1,2008-04-02T03:00:00Z,30.6671,-87.9365,8.5,1.41,129.5,-9999.0,'1111122,1111122,1111122' 
DISL,ioos:station:DISL:MHPA:1,2008-04-02T03:30:00Z,30.6671,-87.9365,8.5,2.14,156.0,-9999.0,'1111122,1111122,1111122' 
DISL,ioos:station:DISL:MHPA:1,2008-04-02T04:00:00Z,30.6671,-87.9365,8.5,1.72,138.0,-9999.0,'1111122,1111122,1111122' 
DISL,ioos:station:DISL:MHPA:1,2008-04-02T04:30:00Z,30.6671,-87.9365,8.5,0.38,19.14,-9999.0,'1111122,1111122,1111122' 
DISL,ioos:station:DISL:MHPA:1,2008-04-02T05:00:00Z,30.6671,-87.9365,8.5,1.13,83.1,-9999.0,'1111122,1111122,1111122' 
DISL,ioos:station:DISL:MHPA:1,2008-04-02T05:30:00Z,30.6671,-87.9365,8.5,1.34,98.2,-9999.0,'1111122,1111122,1111122' 
DISL,ioos:station:DISL:MHPA:1,2008-04-02T06:00:00Z,30.6671,-87.9365,8.5,0.89,98.3,-9999.0,'1111122,1111122,1111122' 
DISL,ioos:station:DISL:MHPA:1,2008-04-02T06:30:00Z,30.6671,-87.9365,8.5,0.66,114.7,-9999.0,'1111122,1111122,1111122' 
DISL,ioos:station:DISL:MHPA:1,2008-04-02T07:00:00Z,30.6671,-87.9365,8.5,1.35,137.1,-9999.0,'1111122,1111122,1111122' 
DISL,ioos:station:DISL:MHPA:1,2008-04-02T07:30:00Z,30.6671,-87.9365,8.5,0.41,108.9,-9999.0,'1111122,1111122,1111122' 
DISL,ioos:station:DISL:MHPA:1,2008-04-02T08:00:00Z,30.6671,-87.9365,8.5,2.43,120.8,-9999.0,'1111122,1111122,1111122' 
DISL,ioos:station:DISL:MHPA:1,2008-04-02T08:30:00Z,30.6671,-87.9365,8.5,1.01,114.7,-9999.0,'1111122,1111122,1111122' 
DISL,ioos:station:DISL:MHPA:1,2008-04-02T09:00:00Z,30.6671,-87.9365,8.5,1.36,123.3,-9999.0,'1111122,1111122,1111122' 
DISL,ioos:station:DISL:MHPA:1,2008-04-02T09:30:00Z,30.6671,-87.9365,8.5,0.63,338.7,-9999.0,'1111122,1111122,1111122' 
DISL,ioos:station:DISL:MHPA:1,2008-04-02T10:00:00Z,30.6671,-87.9365,8.5,1.46,353.9,-9999.0,'1111122,1111122,1111122' 
DISL,ioos:station:DISL:MHPA:1,2008-04-02T10:30:00Z,30.6671,-87.9365,8.5,1.05,16.29,-9999.0,'1111122,1111122,1111122' 
DISL,ioos:station:DISL:MHPA:1,2008-04-02T11:00:00Z,30.6671,-87.9365,8.5,1.34,82.1,-9999.0,'1111122,1111122,1111122' 
DISL,ioos:station:DISL:MHPA:1,2008-04-02T11:30:00Z,30.6671,-87.9365,8.5,1.65,111.7,-9999.0,'1111122,1111122,1111122' 
DISL,ioos:station:DISL:MHPA:1,2008-04-02T12:00:00Z,30.6671,-87.9365,8.5,1.93,110.4,-9999.0,'1111122,1111122,1111122' 
DISL,ioos:station:DISL:MHPA:1,2008-04-02T12:30:00Z,30.6671,-87.9365,8.5,1.42,136.9,-9999.0,'1111122,1111122,1111122' 
DISL,ioos:station:DISL:MHPA:1,2008-04-02T13:00:00Z,30.6671,-87.9365,8.5,1.85,144.2,-9999.0,'1111122,1111122,1111122' 
DISL,ioos:station:DISL:MHPA:1,2008-04-02T13:30:00Z,30.6671,-87.9365,8.5,1.07,154.2,-9999.0,'1111122,1111122,1111122' 
DISL,ioos:station:DISL:MHPA:1,2008-04-02T14:00:00Z,30.6671,-87.9365,8.5,0.1,311.6,-9999.0,'1111122,1111122,1111122' 
DISL,ioos:station:DISL:MHPA:1,2008-04-02T14:30:00Z,30.6671,-87.9365,8.5,0.26,82.4,-9999.0,'1111122,1111122,1111122' 
DISL,ioos:station:DISL:MHPA:1,2008-04-02T15:00:00Z,30.6671,-87.9365,8.5,0.08,37.73,-9999.0,'1111122,1111122,1111122' 
DISL,ioos:station:DISL:MHPA:1,2008-04-02T15:30:00Z,30.6671,-87.9365,8.5,0.11,276.6,-9999.0,'1111122,1111122,1111122' 
DISL,ioos:station:DISL:MHPA:1,2008-04-02T16:00:00Z,30.6671,-87.9365,8.5,0.01,226.7,-9999.0,'1111122,1111122,1111122' 
DISL,ioos:station:DISL:MHPA:1,2008-04-02T16:30:00Z,30.6671,-87.9365,8.5,0.62,196.5,-9999.0,'1111122,1111122,1111122' 
DISL,ioos:station:DISL:MHPA:1,2008-04-02T17:00:00Z,30.6671,-87.9365,8.5,0.79,252.2,-9999.0,'1111122,1111122,1111122' 
DISL,ioos:station:DISL:MHPA:1,2008-04-02T17:30:00Z,30.6671,-87.9365,8.5,1.21,259.4,-9999.0,'1111122,1111122,1111122' 
DISL,ioos:station:DISL:MHPA:1,2008-04-02T18:00:00Z,30.6671,-87.9365,8.5,1.76,318.4,-9999.0,'1111122,1111122,1111122' 
DISL,ioos:station:DISL:MHPA:1,2008-04-02T18:30:00Z,30.6671,-87.9365,8.5,2.34,205.1,-9999.0,'1111122,1111122,1111122' 
DISL,ioos:station:DISL:MHPA:1,2008-04-02T19:00:00Z,30.6671,-87.9365,8.5,2.69,207.5,-9999.0,'1111122,1111122,1111122' 
DISL,ioos:station:DISL:MHPA:1,2008-04-02T19:30:00Z,30.6671,-87.9365,8.5,4.5,193.5,-9999.0,'1111122,1111122,1111122' 
DISL,ioos:station:DISL:MHPA:1,2008-04-02T20:00:00Z,30.6671,-87.9365,8.5,5.13,181.7,-9999.0,'1111122,1111122,1111122' 
DISL,ioos:station:DISL:MHPA:1,2008-04-02T20:30:00Z,30.6671,-87.9365,8.5,3.33,206.8,-9999.0,'1111122,1111122,1111122' 
DISL,ioos:station:DISL:MHPA:1,2008-04-02T21:00:00Z,30.6671,-87.9365,8.5,3.95,226.9,-9999.0,'1111122,1111122,1111122' 
DISL,ioos:station:DISL:MHPA:1,2008-04-02T21:30:00Z,30.6671,-87.9365,8.5,3.98,207.5,-9999.0,'1111122,1111122,1111122' 
DISL,ioos:station:DISL:MHPA:1,2008-04-02T22:00:00Z,30.6671,-87.9365,8.5,3.4,210.7,-9999.0,'1111122,1111122,1111122' 
DISL,ioos:station:DISL:MHPA:1,2008-04-02T22:30:00Z,30.6671,-87.9365,8.5,3.79,196.6,-9999.0,'1111122,1111122,1111122' 
DISL,ioos:station:DISL:MHPA:1,2008-04-02T23:00:00Z,30.6671,-87.9365,8.5,4.28,200.3,-9999.0,'1111122,1111122,1111122' 
DISL,ioos:station:DISL:MHPA:1,2008-04-02T23:30:00Z,30.6671,-87.9365,8.5,5.24,199.6,-9999.0,'1111122,1111122,1111122' 
DISL,ioos:station:DISL:MHPA:1,2008-04-03T00:00:00Z,30.6671,-87.9365,8.5,5.99,199.7,-9999.0,'1111122,1111122,1111122' 
DISL,ioos:station:DISL:MHPA:1,2008-04-03T00:30:00Z,30.6671,-87.9365,8.5,5.41,195.0,-9999.0,'1111122,1111122,1111122' 
DISL,ioos:station:DISL:MHPA:1,2008-04-03T01:00:00Z,30.6671,-87.9365,8.5,5.08,188.5,-9999.0,'1111122,1111122,1111122' 
DISL,ioos:station:DISL:MHPA:1,2008-04-03T01:30:00Z,30.6671,-87.9365,8.5,4.19,197.2,-9999.0,'1111122,1111122,1111122' 
DISL,ioos:station:DISL:MHPA:1,2008-04-03T02:00:00Z,30.6671,-87.9365,8.5,4.34,182.9,-9999.0,'1111122,1111122,1111122' 
DISL,ioos:station:DISL:MHPA:1,2008-04-03T02:30:00Z,30.6671,-87.9365,8.5,3.02,174.9,-9999.0,'1111122,1111122,1111122' 
DISL,ioos:station:DISL:MHPA:1,2008-04-03T03:00:00Z,30.6671,-87.9365,8.5,2.97,202.8,-9999.0,'1111122,1111122,1111122' 
DISL,ioos:station:DISL:MHPA:1,2008-04-03T03:30:00Z,30.6671,-87.9365,8.5,2.44,198.8,-9999.0,'1111122,1111122,1111122' 
DISL,ioos:station:DISL:MHPA:1,2008-04-03T04:00:00Z,30.6671,-87.9365,8.5,2.79,201.9,-9999.0,'1111122,1111122,1111122' 
DISL,ioos:station:DISL:MHPA:1,2008-04-03T04:30:00Z,30.6671,-87.9365,8.5,2.79,165.7,-9999.0,'1111122,1111122,1111122' 
DISL,ioos:station:DISL:MHPA:1,2008-04-03T05:00:00Z,30.6671,-87.9365,8.5,1.84,109.5,-9999.0,'1111122,1111122,1111122' 
DISL,ioos:station:DISL:MHPA:1,2008-04-03T05:30:00Z,30.6671,-87.9365,8.5,1.29,105.9,-9999.0,'1111122,1111122,1111122' 
DISL,ioos:station:DISL:MHPA:1,2008-04-03T06:00:00Z,30.6671,-87.9365,8.5,0.81,101.9,-9999.0,'1111122,1111122,1111122' 
DISL,ioos:station:DISL:MHPA:1,2008-04-03T06:30:00Z,30.6671,-87.9365,8.5,0.96,100.4,-9999.0,'1111122,1111122,1111122' 
DISL,ioos:station:DISL:MHPA:1,2008-04-03T07:00:00Z,30.6671,-87.9365,8.5,0.88,95.9,-9999.0,'1111122,1111122,1111122' 
DISL,ioos:station:DISL:MHPA:1,2008-04-03T07:30:00Z,30.6671,-87.9365,8.5,1.68,137.9,-9999.0,'1111122,1111122,1111122' 
DISL,ioos:station:DISL:MHPA:1,2008-04-03T08:00:00Z,30.6671,-87.9365,8.5,1.44,117.2,-9999.0,'1111122,1111122,1111122' 
DISL,ioos:station:DISL:MHPA:1,2008-04-03T08:30:00Z,30.6671,-87.9365,8.5,1.21,115.0,-9999.0,'1111122,1111122,1111122' 
DISL,ioos:station:DISL:MHPA:1,2008-04-03T09:00:00Z,30.6671,-87.9365,8.5,0.87,62.8,-9999.0,'1111122,1111122,1111122' 
DISL,ioos:station:DISL:MHPA:1,2008-04-03T09:30:00Z,30.6671,-87.9365,8.5,1.04,7.02,-9999.0,'1111122,1111122,1111122' 
DISL,ioos:station:DISL:MHPA:1,2008-04-03T10:00:00Z,30.6671,-87.9365,8.5,1.19,49.71,-9999.0,'1111122,1111122,1111122' 
DISL,ioos:station:DISL:MHPA:1,2008-04-03T10:30:00Z,30.6671,-87.9365,8.5,1.32,67.46,-9999.0,'1111122,1111122,1111122' 
DISL,ioos:station:DISL:MHPA:1,2008-04-03T11:00:00Z,30.6671,-87.9365,8.5,1.48,98.9,-9999.0,'1111122,1111122,1111122' 
DISL,ioos:station:DISL:MHPA:1,2008-04-03T11:30:00Z,30.6671,-87.9365,8.5,0.56,89.8,-9999.0,'1111122,1111122,1111122' 
DISL,ioos:station:DISL:MHPA:1,2008-04-03T12:00:00Z,30.6671,-87.9365,8.5,1.36,91.7,-9999.0,'1111122,1111122,1111122' 
DISL,ioos:station:DISL:MHPA:1,2008-04-03T12:30:00Z,30.6671,-87.9365,8.5,1.37,119.5,-9999.0,'1111122,1111122,1111122' 
DISL,ioos:station:DISL:MHPA:1,2008-04-03T13:00:00Z,30.6671,-87.9365,8.5,2.36,121.3,-9999.0,'1111122,1111122,1111122' 
DISL,ioos:station:DISL:MHPA:1,2008-04-03T13:30:00Z,30.6671,-87.9365,8.5,3.92,140.3,-9999.0,'1111122,1111122,1111122' 
DISL,ioos:station:DISL:MHPA:1,2008-04-03T14:00:00Z,30.6671,-87.9365,8.5,4.32,149.3,-9999.0,'1111122,1111122,1111122' 
DISL,ioos:station:DISL:MHPA:1,2008-04-03T14:30:00Z,30.6671,-87.9365,8.5,3.94,158.5,-9999.0,'1111122,1111122,1111122' 
DISL,ioos:station:DISL:MHPA:1,2008-04-03T15:00:00Z,30.6671,-87.9365,8.5,6.24,163.5,-9999.0,'1111122,1111122,1111122' 
DISL,ioos:station:DISL:MHPA:1,2008-04-03T15:30:00Z,30.6671,-87.9365,8.5,4.78,170.2,-9999.0,'1111122,1111122,1111122' 
DISL,ioos:station:DISL:MHPA:1,2008-04-03T16:00:00Z,30.6671,-87.9365,8.5,4.02,188.5,-9999.0,'1111122,1111122,1111122' 
DISL,ioos:station:DISL:MHPA:1,2008-04-03T16:30:00Z,30.6671,-87.9365,8.5,6.45,182.0,-9999.0,'1111122,1111122,1111122' 
DISL,ioos:station:DISL:MHPA:1,2008-04-03T17:00:00Z,30.6671,-87.9365,8.5,6.38,191.2,-9999.0,'1111122,1111122,1111122' 
DISL,ioos:station:DISL:MHPA:1,2008-04-03T17:30:00Z,30.6671,-87.9365,8.5,5.69,188.3,-9999.0,'1111122,1111122,1111122' 
DISL,ioos:station:DISL:MHPA:1,2008-04-03T18:00:00Z,30.6671,-87.9365,8.5,6.07,192.0,-9999.0,'1111122,1111122,1111122' 
DISL,ioos:station:DISL:MHPA:1,2008-04-03T18:30:00Z,30.6671,-87.9365,8.5,6.11,206.0,-9999.0,'1111122,1111122,1111122' 
DISL,ioos:station:DISL:MHPA:1,2008-04-03T19:00:00Z,30.6671,-87.9365,8.5,5.92,203.2,-9999.0,'1111122,1111122,1111122' 
DISL,ioos:station:DISL:MHPA:1,2008-04-03T19:30:00Z,30.6671,-87.9365,8.5,6.93,195.5,-9999.0,'1111122,1111122,1111122' 
DISL,ioos:station:DISL:MHPA:1,2008-04-03T20:00:00Z,30.6671,-87.9365,8.5,7.16,188.7,-9999.0,'1111122,1111122,1111122' 
DISL,ioos:station:DISL:MHPA:1,2008-04-03T20:30:00Z,30.6671,-87.9365,8.5,8.02,184.8,-9999.0,'1111122,1111122,1111122' 
DISL,ioos:station:DISL:MHPA:1,2008-04-03T21:00:00Z,30.6671,-87.9365,8.5,6.25,191.3,-9999.0,'1111122,1111122,1111122' 
DISL,ioos:station:DISL:MHPA:1,2008-04-03T21:30:00Z,30.6671,-87.9365,8.5,7.22,188.2,-9999.0,'1111122,1111122,1111122' 
DISL,ioos:station:DISL:MHPA:1,2008-04-03T22:00:00Z,30.6671,-87.9365,8.5,6.17,177.9,-9999.0,'1111122,1111122,1111122' 
DISL,ioos:station:DISL:MHPA:1,2008-04-03T22:30:00Z,30.6671,-87.9365,8.5,4.84,174.1,-9999.0,'1111122,1111122,1111122' 
DISL,ioos:station:DISL:MHPA:1,2008-04-03T23:00:00Z,30.6671,-87.9365,8.5,4.72,169.8,-9999.0,'1111122,1111122,1111122' 
DISL,ioos:station:DISL:MHPA:1,2008-04-03T23:30:00Z,30.6671,-87.9365,8.5,5.95,169.8,-9999.0,'1111122,1111122,1111122' 
DISL,ioos:station:DISL:MHPA:1,2008-04-04T00:00:00Z,30.6671,-87.9365,8.5,5.25,160.2,-9999.0,'1111122,1111122,1111122' 
DISL,ioos:station:DISL:MHPA:1,2008-04-04T00:30:00Z,30.6671,-87.9365,8.5,4.18,141.5,-9999.0,'1111122,1111122,1111122' 
DISL,ioos:station:DISL:MHPA:1,2008-04-04T01:00:00Z,30.6671,-87.9365,8.5,4.47,137.5,-9999.0,'1111122,1111122,1111122' 
DISL,ioos:station:DISL:MHPA:1,2008-04-04T01:30:00Z,30.6671,-87.9365,8.5,4.11,132.1,-9999.0,'1111122,1111122,1111122' 
DISL,ioos:station:DISL:MHPA:1,2008-04-04T02:00:00Z,30.6671,-87.9365,8.5,4.42,135.3,-9999.0,'1111122,1111122,1111122' 
DISL,ioos:station:DISL:MHPA:1,2008-04-04T02:30:00Z,30.6671,-87.9365,8.5,3.97,130.8,-9999.0,'1111122,1111122,1111122' 
DISL,ioos:station:DISL:MHPA:1,2008-04-04T03:00:00Z,30.6671,-87.9365,8.5,3.87,133.4,-9999.0,'1111122,1111122,1111122' 
DISL,ioos:station:DISL:MHPA:1,2008-04-04T03:30:00Z,30.6671,-87.9365,8.5,5.27,135.1,-9999.0,'1111122,1111122,1111122' 
DISL,ioos:station:DISL:MHPA:1,2008-04-04T04:00:00Z,30.6671,-87.9365,8.5,5.23,139.5,-9999.0,'1111122,1111122,1111122' 
DISL,ioos:station:DISL:MHPA:1,2008-04-04T04:30:00Z,30.6671,-87.9365,8.5,5.32,140.6,-9999.0,'1111122,1111122,1111122' 
DISL,ioos:station:DISL:MHPA:1,2008-04-04T05:00:00Z,30.6671,-87.9365,8.5,5.42,147.2,-9999.0,'1111122,1111122,1111122' 
DISL,ioos:station:DISL:MHPA:1,2008-04-04T05:30:00Z,30.6671,-87.9365,8.5,5.98,155.3,-9999.0,'1111122,1111122,1111122' 
DISL,ioos:station:DISL:MHPA:1,2008-04-04T06:00:00Z,30.6671,-87.9365,8.5,6.27,151.1,-9999.0,'1111122,1111122,1111122' 
DISL,ioos:station:DISL:MHPA:1,2008-04-04T06:30:00Z,30.6671,-87.9365,8.5,6.46,154.6,-9999.0,'1111122,1111122,1111122' 
DISL,ioos:station:DISL:MHPA:1,2008-04-04T07:00:00Z,30.6671,-87.9365,8.5,5.76,152.1,-9999.0,'1111122,1111122,1111122' 
DISL,ioos:station:DISL:MHPA:1,2008-04-04T07:30:00Z,30.6671,-87.9365,8.5,6.27,159.2,-9999.0,'1111122,1111122,1111122' 
DISL,ioos:station:DISL:MHPA:1,2008-04-04T08:00:00Z,30.6671,-87.9365,8.5,7.63,166.3,-9999.0,'1111122,1111122,1111122' 
DISL,ioos:station:DISL:MHPA:1,2008-04-04T08:30:00Z,30.6671,-87.9365,8.5,6.55,163.5,-9999.0,'1111122,1111122,1111122' 
DISL,ioos:station:DISL:MHPA:1,2008-04-04T09:00:00Z,30.6671,-87.9365,8.5,6.51,153.8,-9999.0,'1111122,1111122,1111122' 
DISL,ioos:station:DISL:MHPA:1,2008-04-04T09:30:00Z,30.6671,-87.9365,8.5,7.23,167.2,-9999.0,'1111122,1111122,1111122' 
DISL,ioos:station:DISL:MHPA:1,2008-04-04T10:00:00Z,30.6671,-87.9365,8.5,6.78,169.1,-9999.0,'1111122,1111122,1111122' 
DISL,ioos:station:DISL:MHPA:1,2008-04-04T10:30:00Z,30.6671,-87.9365,8.5,7.03,167.7,-9999.0,'1111122,1111122,1111122' 
DISL,ioos:station:DISL:MHPA:1,2008-04-04T11:00:00Z,30.6671,-87.9365,8.5,6.97,167.1,-9999.0,'1111122,1111122,1111122' 
DISL,ioos:station:DISL:MHPA:1,2008-04-04T11:30:00Z,30.6671,-87.9365,8.5,6.28,162.5,-9999.0,'1111122,1111122,1111122' 
DISL,ioos:station:DISL:MHPA:1,2008-04-04T12:00:00Z,30.6671,-87.9365,8.5,6.0,163.2,-9999.0,'1111122,1111122,1111122' 
DISL,ioos:station:DISL:MHPA:1,2008-04-04T12:30:00Z,30.6671,-87.9365,8.5,5.72,163.6,-9999.0,'1111122,1111122,1111122' 
DISL,ioos:station:DISL:MHPA:1,2008-04-04T13:00:00Z,30.6671,-87.9365,8.5,5.15,166.4,-9999.0,'1111122,1111122,1111122' 
DISL,ioos:station:DISL:MHPA:1,2008-04-04T13:30:00Z,30.6671,-87.9365,8.5,5.15,169.4,-9999.0,'1111122,1111122,1111122' 
DISL,ioos:station:DISL:MHPA:1,2008-04-04T14:00:00Z,30.6671,-87.9365,8.5,4.84,173.4,-9999.0,'1111122,1111122,1111122' 
DISL,ioos:station:DISL:MHPA:1,2008-04-04T14:30:00Z,30.6671,-87.9365,8.5,6.17,172.9,-9999.0,'1111122,1111122,1111122' 
DISL,ioos:station:DISL:MHPA:1,2008-04-04T15:00:00Z,30.6671,-87.9365,8.5,6.83,178.2,-9999.0,'1111122,1111122,1111122' 
DISL,ioos:station:DISL:MHPA:1,2008-04-04T15:30:00Z,30.6671,-87.9365,8.5,6.37,176.6,-9999.0,'1111122,1111122,1111122' 
DISL,ioos:station:DISL:MHPA:1,2008-04-04T16:00:00Z,30.6671,-87.9365,8.5,7.38,170.2,-9999.0,'1111122,1111122,1111122' 
DISL,ioos:station:DISL:MHPA:1,2008-04-04T16:30:00Z,30.6671,-87.9365,8.5,7.17,167.5,-9999.0,'1111122,1111122,1111122' 
DISL,ioos:station:DISL:MHPA:1,2008-04-04T17:00:00Z,30.6671,-87.9365,8.5,7.01,168.9,-9999.0,'1111122,1111122,1111122' 
DISL,ioos:station:DISL:MHPA:1,2008-04-04T17:30:00Z,30.6671,-87.9365,8.5,7.44,172.1,-9999.0,'1111122,1111122,1111122' 
DISL,ioos:station:DISL:MHPA:1,2008-04-04T18:00:00Z,30.6671,-87.9365,8.5,7.15,179.3,-9999.0,'1111122,1111122,1111122' 
DISL,ioos:station:DISL:MHPA:1,2008-04-04T18:30:00Z,30.6671,-87.9365,8.5,6.97,176.6,-9999.0,'1111122,1111122,1111122' 
DISL,ioos:station:DISL:MHPA:1,2008-04-04T19:00:00Z,30.6671,-87.9365,8.5,7.32,178.4,-9999.0,'1111122,1111122,1111122' 
DISL,ioos:station:DISL:MHPA:1,2008-04-04T19:30:00Z,30.6671,-87.9365,8.5,7.16,178.5,-9999.0,'1111122,1111122,1111122' 
DISL,ioos:station:DISL:MHPA:1,2008-04-04T20:00:00Z,30.6671,-87.9365,8.5,6.83,176.0,-9999.0,'1111122,1111122,1111122' 
DISL,ioos:station:DISL:MHPA:1,2008-04-04T20:30:00Z,30.6671,-87.9365,8.5,7.58,176.5,-9999.0,'1111122,1111122,1111122' 
DISL,ioos:station:DISL:MHPA:1,2008-04-04T21:00:00Z,30.6671,-87.9365,8.5,7.34,177.2,-9999.0,'1111122,1111122,1111122' 
DISL,ioos:station:DISL:MHPA:1,2008-04-04T21:30:00Z,30.6671,-87.9365,8.5,7.71,179.6,-9999.0,'1111122,1111122,1111122' 
DISL,ioos:station:DISL:MHPA:1,2008-04-04T22:00:00Z,30.6671,-87.9365,8.5,7.6,173.4,-9999.0,'1111122,1111122,1111122' 
DISL,ioos:station:DISL:MHPA:1,2008-04-04T22:30:00Z,30.6671,-87.9365,8.5,7.38,175.8,-9999.0,'1111122,1111122,1111122' 
DISL,ioos:station:DISL:MHPA:1,2008-04-04T23:00:00Z,30.6671,-87.9365,8.5,6.54,171.8,-9999.0,'1111122,1111122,1111122' 
DISL,ioos:station:DISL:MHPA:1,2008-04-04T23:30:00Z,30.6671,-87.9365,8.5,6.42,179.5,-9999.0,'1111122,1111122,1111122' 
DISL,ioos:station:DISL:MHPA:1,2008-04-05T00:00:00Z,30.6671,-87.9365,8.5,6.18,175.5,-9999.0,'1111122,1111122,1111122' 
DISL,ioos:station:DISL:MHPA:1,2008-04-05T00:30:00Z,30.6671,-87.9365,8.5,6.99,173.4,-9999.0,'1111122,1111122,1111122' 
DISL,ioos:station:DISL:MHPA:1,2008-04-05T01:00:00Z,30.6671,-87.9365,8.5,6.64,166.3,-9999.0,'1111122,1111122,1111122' 
DISL,ioos:station:DISL:MHPA:1,2008-04-05T01:30:00Z,30.6671,-87.9365,8.5,6.07,165.2,-9999.0,'1111122,1111122,1111122' 
DISL,ioos:station:DISL:MHPA:1,2008-04-05T02:00:00Z,30.6671,-87.9365,8.5,6.72,161.3,-9999.0,'1111122,1111122,1111122' 
DISL,ioos:station:DISL:MHPA:1,2008-04-05T02:30:00Z,30.6671,-87.9365,8.5,6.43,165.9,-9999.0,'1111122,1111122,1111122' 
DISL,ioos:station:DISL:MHPA:1,2008-04-05T03:00:00Z,30.6671,-87.9365,8.5,6.39,172.3,-9999.0,'1111122,1111122,1111122' 
DISL,ioos:station:DISL:MHPA:1,2008-04-05T03:30:00Z,30.6671,-87.9365,8.5,5.29,341.9,-9999.0,'1111122,1111122,1111122' 
DISL,ioos:station:DISL:MHPA:1,2008-04-05T04:00:00Z,30.6671,-87.9365,8.5,3.61,20.39,-9999.0,'1111122,1111122,1111122' 
DISL,ioos:station:DISL:MHPA:1,2008-04-05T04:30:00Z,30.6671,-87.9365,8.5,5.33,300.6,-9999.0,'1111122,1111122,1111122' 